Location: Cisewo
(53.3833°N, 14.9000°E)
Time: 12:21:33
(UTC+00:00)

MetOp-B - Pass Details

Date: 18 April 2021
Orbit: 818 x 822 km, 98.7° (Epoch: 16 May)

Event Time Altitude Azimuth Distance (km) Brightness Sun altitude
Exits shadow 19:52:04 13° 171° (S) 2,230 5.9 -14.2°
Maximum altitude 19:56:56 73° 256° (WSW) 864 4.3 -14.7°
Drops below altitude 10° 20:02:19 10° 341° (NNW) 2,432 7.6 -15.3°
Sets 20:04:41 0° 344° (NNW) 3,368 8.5 -15.5°
